Klawock, AK

12:44 PM AKDT on March 24, 2017 (GMT -0800)
Klawock

Weather History for PAKW - November, 2012

Change the Weather History Date:

Tuesday, November 13, 2012

  Actual Average Record
Temperature  
Mean Temperature 38 °F -  
Max Temperature 43 °F 43 °F 52 °F (2003)
Min Temperature 32 °F 34 °F 26 °F (1998)
Degree Days  
Heating Degree Days 28    
Moisture  
Dew Point 39 °F    
Average Humidity 95    
Maximum Humidity 100    
Minimum Humidity 86    
Precipitation  
Precipitation 0.20 in - - ()
Sea Level Pressure  
Sea Level Pressure 29.99 in    
Wind  
Wind Speed 1 mph (SSW)    
Max Wind Speed 6 mph    
Max Gust Speed -    
Visibility 7 miles    
Events Rain    
Averages and records for this station are not official NWS values.
T = Trace of Precipitation, MM = Missing Value Source: NWS Daily Summary

Daily Weather History Graph

Daily Weather History Graph

Search for Another Location

Airport or City:

Trip Planner

Search our weather history database for the weather conditions in past years. The results will help you decide how hot, cold, wet, or windy it might be!

Date:

Astronomy

Nov. 13, 2012 Rise Set
Actual Time 7:24 AM AKST 3:48 PM AKST
Civil Twilight 6:42 AM AKST 4:29 PM AKST
Nautical Twilight 5:57 AM AKST 5:14 PM AKST
Astronomical Twilight 5:14 AM AKST 5:58 PM AKST
Moon 7:15 AM AKST (11/13) 3:41 PM AKST (11/13)
Length of Visible Light 9h 47m
Length of Day
8h 24m
Waning Crescent, 0% of the Moon is Illuminated
Nov 13
Waning Crescent
Nov 13
New
Nov 20
First Quarter
Nov 28
Full
Dec 6
Last Quarter

Hourly Weather History & Observations

Time (AKST) Temp. Windchill Dew Point Humidity Pressure Visibility Wind Dir Wind Speed Gust Speed Precip Events Conditions
12:08 AM 32.0 °F - 30.2 °F 93% 29.96 in 1.8 mi Calm Calm - N/A   Overcast
12:16 AM 33.8 °F - 32.0 °F 93% 29.96 in 1.2 mi Calm Calm - N/A   Overcast
12:27 AM 33.8 °F - 32.0 °F 93% 29.96 in 1.5 mi Calm Calm - N/A   Overcast
12:31 AM 33.8 °F - 33.8 °F 100% 29.96 in 3.0 mi Calm Calm - N/A   Overcast
12:53 AM 33.1 °F - 33.1 °F 100% 29.96 in 8.0 mi Calm Calm - N/A   Overcast
1:07 AM 33.8 °F - 32.0 °F 93% 29.96 in 10.0 mi Calm Calm - N/A   Mostly Cloudy
1:53 AM 33.1 °F - 32.0 °F 96% 29.96 in 10.0 mi Calm Calm - N/A   Overcast
3:53 AM 35.1 °F - 34.0 °F 96% 29.97 in 10.0 mi Calm Calm - 0.00 in Rain Light Rain
4:53 AM 34.0 °F - 33.1 °F 96% 29.97 in 10.0 mi Calm Calm - 0.00 in   Overcast
5:25 AM 35.6 °F - 33.8 °F 93% 29.98 in 10.0 mi Calm Calm - N/A   Mostly Cloudy
5:53 AM 34.0 °F - 33.1 °F 96% 29.99 in 10.0 mi Calm Calm - N/A   Overcast
6:53 AM 35.1 °F - 34.0 °F 96% 29.98 in 10.0 mi Calm Calm - N/A   Overcast
7:53 AM 33.1 °F - 32.0 °F 96% 30.00 in 10.0 mi Calm Calm - N/A   Overcast
8:53 AM 36.0 °F - 35.1 °F 97% 30.01 in 10.0 mi Calm Calm - N/A   Overcast
9:53 AM 37.9 °F - 37.0 °F 97% 30.02 in 10.0 mi Calm Calm - N/A   Overcast
10:53 AM 39.9 °F - 37.9 °F 93% 30.01 in 10.0 mi Calm Calm - N/A   Overcast
11:53 AM 41.0 °F - 39.0 °F 93% 30.00 in 10.0 mi Calm Calm - N/A   Overcast
12:53 PM 43.0 °F - 39.0 °F 86% 29.99 in 10.0 mi Calm Calm - N/A   Overcast
1:53 PM 43.0 °F - 39.9 °F 89% 30.00 in 10.0 mi Calm Calm - N/A   Overcast
2:53 PM 42.1 °F - 41.0 °F 96% 29.98 in 10.0 mi Calm Calm - 0.02 in   Overcast
3:53 PM 43.0 °F - 41.0 °F 93% 29.97 in 4.0 mi Calm Calm - 0.01 in Rain Light Rain
4:42 PM 42.8 °F 40.1 °F 41.0 °F 93% 29.97 in 6.0 mi SSW 4.6 mph - 0.01 in Rain Light Rain
4:53 PM 43.0 °F 39.5 °F 41.0 °F 93% 29.97 in 7.0 mi Variable 5.8 mph - 0.02 in Rain Light Rain
5:18 PM 42.8 °F 40.1 °F 42.8 °F 100% 29.96 in 1.8 mi SSW 4.6 mph - 0.02 in Rain Rain
5:23 PM 42.8 °F 39.3 °F 42.8 °F 100% 29.97 in 1.2 mi SW 5.8 mph - 0.03 in Rain Rain
5:29 PM 42.8 °F 40.1 °F 42.8 °F 100% 29.97 in 1.5 mi SW 4.6 mph - 0.04 in Rain Light Rain
5:42 PM 42.8 °F 41.1 °F 42.8 °F 100% 29.97 in 2.5 mi SSW 3.5 mph - 0.05 in Rain Light Rain
5:53 PM 43.0 °F 39.5 °F 42.1 °F 97% 29.98 in 2.5 mi SSW 5.8 mph - 0.06 in Rain Light Rain
6:03 PM 42.8 °F 40.1 °F 42.8 °F 100% 29.98 in 4.0 mi SSW 4.6 mph - 0.01 in Rain Light Rain
6:15 PM 42.8 °F 41.1 °F 42.8 °F 100% 29.98 in 2.0 mi Variable 3.5 mph - 0.03 in Rain Light Rain
6:42 PM 42.8 °F 41.1 °F 42.8 °F 100% 29.99 in 4.0 mi SSW 3.5 mph - 0.04 in Rain Light Rain
6:46 PM 42.8 °F - 42.8 °F 100% 29.99 in 2.5 mi Calm Calm - 0.05 in Rain Light Rain
6:53 PM 43.0 °F 40.3 °F 42.1 °F 97% 29.99 in 2.5 mi WSW 4.6 mph - 0.05 in Rain Light Rain
6:57 PM 42.8 °F 41.1 °F 42.8 °F 100% 29.99 in 4.0 mi Variable 3.5 mph - 0.00 in Rain Light Rain
7:27 PM 42.8 °F - 39.2 °F 87% 30.00 in 10.0 mi Calm Calm - 0.00 in   Overcast
7:48 PM 42.8 °F 41.1 °F 41.0 °F 93% 30.00 in 10.0 mi South 3.5 mph - 0.00 in   Overcast
7:53 PM 42.1 °F - 41.0 °F 96% 30.01 in 10.0 mi Calm Calm - 0.00 in   Overcast
8:53 PM 42.1 °F 40.2 °F 41.0 °F 96% 30.02 in 10.0 mi West 3.5 mph - 0.00 in   Overcast
8:59 PM 42.8 °F 39.3 °F 41.0 °F 93% 30.02 in 5.0 mi West 5.8 mph - 0.00 in Rain Light Rain
9:08 PM 42.8 °F - 42.8 °F 100% 30.02 in 3.0 mi Calm Calm - 0.01 in Rain Light Rain
9:36 PM 42.8 °F 41.1 °F 41.0 °F 93% 30.03 in 10.0 mi SSE 3.5 mph - 0.01 in   Overcast
9:53 PM 42.1 °F - 41.0 °F 96% 30.03 in 5.0 mi Calm Calm - 0.01 in   Overcast
10:01 PM 42.8 °F - 41.0 °F 93% 30.02 in 7.0 mi Calm Calm - N/A   Overcast
10:15 PM 42.8 °F 41.1 °F 41.0 °F 93% 30.02 in 2.5 mi South 3.5 mph - 0.03 in Rain Light Rain
10:22 PM 42.8 °F - 41.0 °F 93% 30.02 in 7.0 mi Calm Calm - 0.03 in Rain Light Rain
10:53 PM 41.0 °F 39.0 °F 39.9 °F 96% 30.03 in 10.0 mi South 3.5 mph - 0.03 in   Overcast
11:02 PM 41.0 °F - 39.2 °F 93% 30.02 in 10.0 mi Calm Calm - N/A   Overcast
11:53 PM 42.1 °F - 39.9 °F 92% 30.04 in 4.0 mi Calm Calm - 0.00 in Rain Light Rain